User: anonymous   Login
Location: Dompnac
(44.5644°N, 4.1026°E)
Time: 11:50:29
(UTC+00:00)
Language:

ISS - Orbit

View from above orbital plane
View from above orbital plane
View from above satellite
View from above satellite

Ground track
Ground track

The orbit data is extracted from the following two-line orbital elements,

1 25544U 98067A   21167.01567025  .00001169  00000-0  29394-4 0  9991
2 25544  51.6440 348.5182 0003529  96.5253  53.6176 15.48988803288417
Epoch (UTC): 16 June 2021 00:22:33
Eccentricity: 0.0003529
inclination: 51.6440°
perigee height: 417 km
apogee height: 422 km
right ascension of ascending node: 348.5182°
argument of perigee: 96.5253°
revolutions per day: 15.48988803
mean anomaly at epoch: 53.6176°
orbit number at epoch: 28841

The dashed part of the orbit path shows where the satellite is in the earth's shadow,  

DLR